KZ1X Weather Reports


Display with metric or nautical units.
time (UTC)temp
F
wind
direction
speed
MPH
gust
MPH
rain 1hr
in
rain 24hr
in
rain mn
in
humidity
%
barometer
mb
20260904143047 84 0 0.0 3.0 0.00 0.00 0.00 83 1016.7
20260904141544 83 0 0.0 2.0 0.00 0.00 0.00 83 1016.7
20260904140044 82 146 0.0 2.0 0.00 0.00 0.00 86 1017.0
20260904134548 81 0 1.0 3.0 0.00 0.00 0.00 86 1017.0
20260904133049 79 82 0.0 3.0 0.00 0.00 0.00 90 1016.8
20260904131548 78 0 0.0 0.0 0.00 0.00 0.00 93 1016.7
20260904130042 77 0 0.0 1.0 0.00 0.00 0.00 94 1016.9
20260904124558 76 0 0.0 1.0 0.00 0.00 0.00 95 1017.0
20260904123046 75 0 0.0 0.0 0.00 0.00 0.00 96 1017.2
20260904121546 74 0 0.0 0.0 0.00 0.00 0.00 97 1017.2
20260904120055 74 0 0.0 0.0 0.00 0.00 0.00 97 1017.0
20260904114549 74 0 0.0 0.0 0.00 0.00 0.00 97 1016.8
20260904113052 73 0 0.0 0.0 0.00 0.00 0.00 97 1016.8
20260904111555 73 0 0.0 0.0 0.00 0.00 0.00 97 1016.8
20260904110046 73 0 0.0 0.0 0.00 0.00 0.00 96 1016.7
20260904104556 74 0 0.0 0.0 0.00 0.00 0.00 96 1016.4
20260904103048 74 0 0.0 0.0 0.00 0.00 0.00 95 1016.6
20260904101545 74 0 0.0 0.0 0.00 0.00 0.00 96 1016.6
20260904100044 74 0 0.0 0.0 0.00 0.00 0.00 95 1016.6
20260904094602 74 0 0.0 0.0 0.00 0.00 0.00 95 1016.6
20260904093051 74 0 0.0 0.0 0.00 0.00 0.00 94 1016.4
20260904091542 75 0 0.0 0.0 0.00 0.00 0.00 94 1016.4
20260904090050 75 0 0.0 0.0 0.00 0.00 0.00 94 1016.2
20260904084548 75 0 0.0 0.0 0.00 0.00 0.00 93 1016.1
20260904083043 76 0 0.0 0.0 0.00 0.00 0.00 92 1015.9
20260904081611 76 0 0.0 0.0 0.00 0.00 0.00 92 1015.9
20260904080049 76 0 0.0 0.0 0.00 0.00 0.00 92 1015.8
20260904074602 76 0 0.0 0.0 0.00 0.00 0.00 92 1015.8
20260904073059 76 0 0.0 0.0 0.00 0.00 0.00 91 1015.8
20260904071549 77 0 0.0 0.0 0.00 0.00 0.00 91 1016.0
20260904070104 77 0 0.0 0.0 0.00 0.00 0.00 91 1016.0
20260904064543 77 0 0.0 0.0 0.00 0.00 0.00 91 1016.2
20260904063055 77 0 0.0 0.0 0.00 0.00 0.00 91 1016.6
20260904061600 77 0 0.0 0.0 0.00 0.00 0.00 90 1016.7
20260904060046 78 0 0.0 0.0 0.00 0.00 0.00 90 1017.1
20260904054551 78 0 0.0 0.0 0.00 0.00 0.00 90 1017.1
20260904053044 78 0 0.0 0.0 0.00 0.00 0.00 90 1017.3
20260904051552 79 0 0.0 0.0 0.00 0.00 0.00 89 1017.4
20260904050047 79 0 0.0 0.0 0.00 0.00 0.00 89 1017.5
20260904044549 79 0 0.0 0.0 0.00 0.00 0.00 88 1017.3
20260904043057 80 0 0.0 0.0 0.00 0.00 0.00 88 1017.2
20260904041552 80 0 0.0 0.0 0.00 0.00 0.00 88 1017.1
20260904040050 80 0 0.0 0.0 0.00 0.00 0.00 88 1017.1
20260904034552 80 0 0.0 0.0 0.00 0.00 0.00 89 1017.1
20260904033043 80 0 0.0 0.0 0.00 0.00 0.00 89 1016.9
20260904031549 79 0 0.0 0.0 0.00 0.00 0.00 90 1017.1
20260904030049 80 0 0.0 0.0 0.00 0.00 0.00 89 1017.0
20260904024550 80 0 0.0 0.0 0.00 0.00 0.00 88 1017.1
20260904023041 80 0 0.0 0.0 0.00 0.00 0.00 88 1017.1
20260904021554 80 0 0.0 0.0 0.00 0.00 0.00 87 1017.2
20260904020047 81 0 0.0 0.0 0.00 0.00 0.00 87 1017.1
20260904014609 81 0 0.0 0.0 0.00 0.00 0.00 85 1017.1
20260904013054 81 0 0.0 0.0 0.00 0.00 0.00 85 1016.8
20260904011548 82 0 0.0 0.0 0.00 0.00 0.00 85 1016.5
20260904010045 82 0 0.0 0.0 0.00 0.00 0.00 84 1016.2
20260904004543 82 0 0.0 0.0 0.00 0.00 0.00 83 1016.2
20260904003053 83 0 0.0 0.0 0.00 0.00 0.00 82 1015.9
20260904001543 84 0 0.0 0.0 0.00 0.00 0.00 81 1015.6
20260904000135 84 0 0.0 0.0 0.00 0.00 0.00 79 1015.4
20260903234552 85 0 0.0 0.0 0.00 0.00 0.00 78 1015.3
20260903233049 86 0 0.0 0.0 0.00 0.00 0.00 76 1015.2
20260903231559 86 0 0.0 0.0 0.00 0.00 0.00 74 1015.1
20260903230055 87 0 0.0 0.0 0.00 0.00 0.00 72 1015.1
20260903224548 88 0 0.0 0.0 0.00 0.00 0.00 71 1015.1
20260903223049 88 0 0.0 0.0 0.00 0.00 0.00 73 1015.1
20260903221550 89 0 0.0 0.0 0.00 0.00 0.00 70 1015.0
20260903220105 89 0 0.0 0.0 0.00 0.00 0.00 72 1015.2
20260903214550 89 0 0.0 0.0 0.00 0.00 0.00 71 1015.2
20260903213053 89 0 0.0 0.0 0.00 0.00 0.00 68 1015.3
20260903211547 91 0 0.0 0.0 0.00 0.00 0.00 66 1015.3
20260903210050 92 0 0.0 0.0 0.00 0.00 0.00 64 1015.3
20260903204550 95 0 0.0 0.0 0.00 0.00 0.00 59 1015.3
20260903203049 95 0 0.0 0.0 0.00 0.00 0.00 59 1015.5
20260903201548 97 0 0.0 0.0 0.00 0.00 0.00 59 1015.7
20260903200047 97 0 0.0 0.0 0.00 0.00 0.00 56 1015.9
20260903194548 97 0 0.0 1.0 0.00 0.00 0.00 57 1016.0
20260903193053 97 0 0.0 1.0 0.00 0.00 0.00 60 1016.0
20260903191548 97 0 0.0 1.0 0.00 0.00 0.00 56 1016.2
20260903190059 95 243 0.0 1.0 0.00 0.00 0.00 58 1016.5
20260903184548 97 0 0.0 2.0 0.00 0.00 0.00 56 1016.5
20260903183048 99 261 0.0 0.0 0.00 0.00 0.00 53 1016.8
20260903181550 97 0 0.0 2.0 0.00 0.00 0.00 56 1016.9
20260903180051 97 0 0.0 2.0 0.00 0.00 0.00 53 1017.0
20260903174542 97 0 0.0 2.0 0.00 0.00 0.00 53 1017.2
20260903173053 96 0 0.0 1.0 0.00 0.00 0.00 61 1017.4
20260903171547 96 242 0.0 3.0 0.00 0.00 0.00 63 1017.6
20260903170056 96 0 0.0 2.0 0.00 0.00 0.00 62 1017.8
20260903164544 95 0 0.0 2.0 0.00 0.00 0.00 57 1018.0
20260903163107 95 89 0.0 1.0 0.00 0.00 0.00 59 1018.0
20260903161549 94 46 0.0 4.0 0.00 0.00 0.00 64 1018.1
20260903160055 93 221 1.0 4.0 0.00 0.00 0.00 63 1018.3
20260903154549 92 338 1.0 5.0 0.00 0.00 0.00 67 1018.3
20260903153049 91 0 0.0 2.0 0.00 0.00 0.00 75 1018.3
20260903151551 90 105 0.0 1.0 0.00 0.00 0.00 73 1018.4
20260903150108 88 62 0.0 1.0 0.00 0.00 0.00 76 1018.4
20260903144552 86 205 0.0 1.0 0.00 0.00 0.00 78 1018.4